FW4175 Weather Reports


Display with metric or nautical units.
time (UTC)temp
F
wind
direction
speed
MPH
gust
MPH
rain 1hr
in
rain 24hr
in
rain mn
in
humidity
%
barometer
mb
20260508114422 39 47 0.0 2.0 0.00 0.00 0.00 99 1013.3
20260508113919 37 83 2.0 3.0 0.00 0.00 0.00 99 1013.4
20260508113417 36 26 2.0 3.0 0.00 0.00 0.00 99 1013.2
20260508112914 35 40 2.0 3.0 0.00 0.00 0.00 99 1013.2
20260508112410 34 110 0.0 3.0 0.00 0.00 0.00 99 1013.3
20260508111907 33 108 1.0 3.0 0.00 0.00 0.00 99 1013.2
20260508111404 33 105 1.0 2.0 0.00 0.00 0.00 99 1013.1
20260508110901 33 129 2.0 3.0 0.00 0.00 0.00 99 1013.2
20260508110358 33 109 1.0 3.0 0.00 0.00 0.00 99 1013.3
20260508105853 33 93 2.0 3.0 0.00 0.00 0.00 99 1013.1
20260508105349 33 104 1.0 3.0 0.00 0.00 0.00 99 1012.9
20260508104847 33 123 0.0 3.0 0.00 0.00 0.00 99 1012.9
20260508104343 33 114 1.0 3.0 0.00 0.00 0.00 99 1012.9
20260508103841 33 111 2.0 3.0 0.00 0.00 0.00 99 1013.3
20260508103337 33 113 2.0 4.0 0.00 0.00 0.00 99 1013.0
20260508102835 33 106 2.0 3.0 0.00 0.00 0.00 99 1013.0
20260508102333 33 100 2.0 2.0 0.00 0.00 0.00 99 1013.3
20260508101830 33 99 1.0 3.0 0.00 0.00 0.00 99 1012.8
20260508101327 33 97 0.0 2.0 0.00 0.00 0.00 99 1012.8
20260508100825 33 115 2.0 3.0 0.00 0.00 0.00 99 1012.8
20260508100324 33 103 2.0 3.0 0.00 0.00 0.00 99 1012.9
20260508095818 33 87 2.0 3.0 0.00 0.00 0.00 99 1013.2
20260508095316 33 110 1.0 3.0 0.00 0.00 0.00 99 1013.2
20260508094813 34 107 2.0 3.0 0.00 0.00 0.00 99 1013.1
20260508094310 34 107 2.0 2.0 0.00 0.00 0.00 99 1012.9
20260508093807 34 50 1.0 3.0 0.00 0.00 0.00 99 1013.0
20260508093305 34 81 1.0 2.0 0.00 0.00 0.00 99 1013.0
20260508092802 34 85 1.0 2.0 0.00 0.00 0.00 99 1013.0
20260508092300 34 84 2.0 3.0 0.00 0.00 0.00 99 1013.3
20260508091758 34 53 1.0 2.0 0.00 0.00 0.00 99 1013.3
20260508091254 34 99 1.0 2.0 0.00 0.00 0.00 99 1013.3
20260508090752 34 122 0.0 2.0 0.00 0.00 0.00 99 1013.1
20260508090250 34 112 1.0 2.0 0.00 0.00 0.00 99 1013.5
20260508085745 34 98 2.0 3.0 0.00 0.00 0.00 99 1013.1
20260508085242 35 138 2.0 3.0 0.00 0.00 0.00 99 1013.2
20260508084738 35 121 1.0 3.0 0.00 0.00 0.00 99 1013.3
20260508084236 35 69 2.0 3.0 0.00 0.00 0.00 99 1013.6
20260508083733 35 80 3.0 3.0 0.00 0.00 0.00 99 1013.4
20260508083231 35 54 1.0 3.0 0.00 0.00 0.00 99 1013.3
20260508082725 35 164 0.0 2.0 0.00 0.00 0.00 99 1013.5
20260508082224 35 94 2.0 3.0 0.00 0.00 0.00 99 1013.7
20260508081721 36 72 0.0 3.0 0.00 0.00 0.00 99 1013.5
20260508081217 36 99 2.0 4.0 0.00 0.00 0.00 99 1013.4
20260508080714 36 113 2.0 3.0 0.00 0.00 0.00 99 1013.7
20260508080212 36 107 2.0 3.0 0.00 0.00 0.00 99 1013.5
20260508075708 36 97 0.0 3.0 0.00 0.00 0.00 99 1013.4
20260508075206 36 102 2.0 2.0 0.00 0.00 0.00 99 1013.5
20260508074703 37 67 2.0 3.0 0.00 0.00 0.00 99 1013.4
20260508074200 37 96 2.0 2.0 0.00 0.00 0.00 99 1013.4
20260508073657 37 55 2.0 3.0 0.00 0.00 0.00 99 1013.5
20260508073155 37 78 2.0 2.0 0.00 0.00 0.00 99 1013.4
20260508072650 37 99 0.0 3.0 0.00 0.00 0.00 99 1013.6
20260508072148 38 128 1.0 3.0 0.00 0.00 0.00 99 1013.6
20260508071645 38 94 2.0 3.0 0.00 0.00 0.00 99 1013.8
20260508071144 38 122 2.0 3.0 0.00 0.00 0.00 99 1013.8
20260508070641 38 93 1.0 2.0 0.00 0.00 0.00 99 1014.0
20260508070139 38 99 1.0 2.0 0.00 0.00 0.00 99 1013.9
20260508065636 37 75 1.0 2.0 0.00 0.00 0.00 99 1013.9
20260508065134 37 102 1.0 3.0 0.00 0.00 0.00 99 1014.1
20260508064631 37 115 2.0 3.0 0.00 0.00 0.00 99 1014.2
20260508064129 37 77 1.0 2.0 0.00 0.00 0.00 99 1014.1
20260508063626 37 86 1.0 3.0 0.00 0.00 0.00 99 1013.9
20260508063125 37 22 1.0 2.0 0.00 0.00 0.00 99 1014.0
20260508062622 37 99 0.0 2.0 0.00 0.00 0.00 99 1014.1
20260508062118 36 107 1.0 3.0 0.00 0.00 0.00 99 1014.0
20260508061615 37 96 0.0 3.0 0.00 0.00 0.00 99 1014.0
20260508061113 37 121 2.0 3.0 0.00 0.00 0.00 99 1013.8
20260508060609 37 76 0.0 2.0 0.00 0.00 0.00 99 1013.8
20260508060107 37 110 2.0 2.0 0.00 0.00 0.00 99 1013.9
20260508055602 37 49 2.0 2.0 0.00 0.00 0.00 99 1013.9
20260508055059 36 60 0.0 3.0 0.00 0.00 0.00 99 1013.9
20260508054556 36 88 1.0 2.0 0.00 0.00 0.00 99 1013.9
20260508054053 36 95 0.0 2.0 0.00 0.00 0.00 99 1013.8
20260508053549 36 114 0.0 2.0 0.00 0.00 0.00 99 1013.7
20260508053048 37 71 0.0 2.0 0.00 0.00 0.00 99 1013.9
20260508052545 37 121 0.0 2.0 0.00 0.00 0.00 99 1013.6
20260508052042 37 72 0.0 2.0 0.00 0.00 0.00 99 1013.9
20260508051538 37 120 1.0 2.0 0.00 0.00 0.00 99 1013.8
20260508051033 37 40 0.0 2.0 0.00 0.00 0.00 99 1013.7
20260508050530 37 100 0.0 2.0 0.00 0.00 0.00 99 1013.6
20260508050027 37 70 2.0 3.0 0.00 0.00 0.00 99 1013.6
20260508045523 38 43 2.0 3.0 0.00 0.00 0.00 99 1013.6
20260508045021 38 94 2.0 3.0 0.00 0.00 0.00 99 1013.4
20260508044518 38 89 0.0 2.0 0.00 0.00 0.00 99 1013.5
20260508044014 38 61 0.0 3.0 0.00 0.00 0.00 99 1013.6
20260508043511 38 68 2.0 4.0 0.00 0.00 0.00 99 1013.4
20260508043008 38 60 0.0 3.0 0.00 0.00 0.00 98 1013.3
20260508042505 38 116 0.0 2.0 0.00 0.00 0.00 98 1013.5
20260508042002 39 73 1.0 3.0 0.00 0.00 0.00 98 1013.4
20260508041458 39 41 2.0 3.0 0.00 0.00 0.00 98 1013.5
20260508040955 39 80 1.0 3.0 0.00 0.00 0.00 98 1013.5
20260508040453 39 29 2.0 3.0 0.00 0.00 0.00 97 1013.4
20260508035950 39 86 0.0 3.0 0.00 0.00 0.00 97 1013.5
20260508035446 39 51 3.0 3.0 0.00 0.00 0.00 97 1013.2
20260508034943 40 100 1.0 4.0 0.00 0.00 0.00 97 1013.1
20260508034441 40 31 0.0 2.0 0.00 0.00 0.00 96 1013.4
20260508033937 40 99 2.0 5.0 0.00 0.00 0.00 96 1013.2
20260508033436 40 335 0.0 7.0 0.00 0.00 0.00 96 1013.3
20260508032932 40 57 2.0 5.0 0.00 0.00 0.00 96 1013.2
20260508032430 41 44 2.0 5.0 0.00 0.00 0.00 96 1013.3
20260508031926 40 69 3.0 4.0 0.00 0.00 0.00 95 1013.3
20260508031424 41 16 1.0 5.0 0.00 0.00 0.00 95 1013.2
20260508030919 41 56 2.0 3.0 0.00 0.00 0.00 95 1013.3
20260508030417 41 61 2.0 6.0 0.00 0.00 0.00 94 1013.1
20260508025914 41 18 2.0 3.0 0.00 0.00 0.00 94 1013.2
20260508025410 41 77 3.0 5.0 0.00 0.00 0.00 93 1013.2
20260508024908 42 55 2.0 4.0 0.00 0.00 0.00 93 1013.1
20260508024404 41 37 4.0 5.0 0.00 0.00 0.00 94 1013.2
20260508023901 41 35 2.0 4.0 0.00 0.00 0.00 94 1012.9
20260508023358 41 24 2.0 3.0 0.00 0.00 0.00 93 1013.1
20260508022854 41 32 2.0 4.0 0.00 0.00 0.00 94 1013.0
20260508022350 42 65 0.0 2.0 0.00 0.00 0.00 93 1012.9
20260508021847 42 92 0.0 3.0 0.00 0.00 0.00 92 1012.6
20260508021343 42 96 2.0 3.0 0.00 0.00 0.00 92 1012.5
20260508020839 42 47 3.0 3.0 0.00 0.00 0.00 91 1012.5
20260508020337 42 49 2.0 3.0 0.00 0.00 0.00 91 1012.3
20260508015834 43 53 2.0 3.0 0.00 0.00 0.00 90 1012.6
20260508015331 43 116 2.0 5.0 0.00 0.00 0.00 89 1012.4
20260508014827 43 57 2.0 3.0 0.00 0.00 0.00 89 1012.4
20260508014325 44 119 4.0 5.0 0.00 0.00 0.00 88 1012.3
20260508013820 44 60 2.0 3.0 0.00 0.00 0.00 87 1012.3
20260508013317 44 39 2.0 3.0 0.00 0.00 0.00 86 1012.3
20260508012814 45 55 1.0 2.0 0.00 0.00 0.00 85 1011.8
20260508012311 45 114 2.0 4.0 0.00 0.00 0.00 85 1012.0
20260508011809 46 63 1.0 4.0 0.00 0.00 0.00 84 1012.0
20260508011307 46 41 2.0 4.0 0.00 0.00 0.00 84 1011.9
20260508010803 46 0 2.0 7.0 0.00 0.00 0.00 84 1011.9
20260508010301 46 109 2.0 7.0 0.00 0.00 0.00 83 1011.6
20260508005758 46 119 3.0 8.0 0.00 0.00 0.00 82 1011.6
20260508005255 47 126 4.0 11.0 0.00 0.00 0.00 82 1011.6
20260508004750 47 105 3.0 9.0 0.00 0.00 0.00 81 1011.5
20260508004247 47 127 5.0 6.0 0.00 0.00 0.00 81 1011.5
20260508003743 48 101 3.0 7.0 0.00 0.00 0.00 79 1011.5
20260508003241 48 93 4.0 7.0 0.00 0.00 0.00 79 1011.4
20260508002737 49 117 3.0 5.0 0.00 0.00 0.00 77 1011.2
20260508002235 50 89 1.0 5.0 0.00 0.00 0.00 77 1011.5
20260508001730 50 137 5.0 8.0 0.00 0.00 0.00 77 1011.5
20260508001226 50 129 3.0 7.0 0.00 0.00 0.00 76 1011.4
20260508000723 50 114 6.0 6.0 0.00 0.00 0.00 75 1011.3
20260508000220 50 83 3.0 9.0 0.00 0.00 0.00 76 1011.3
20260507235716 51 128 7.0 7.0 0.00 0.00 0.00 75 1011.2
20260507235214 50 98 5.0 12.0 0.00 0.00 0.00 76 1011.4
20260507234711 51 102 3.0 9.0 0.00 0.00 0.00 75 1011.6
20260507234207 51 129 9.0 11.0 0.00 0.00 0.00 75 1011.4
20260507233704 51 53 2.0 8.0 0.00 0.00 0.00 74 1011.3
20260507233202 51 81 6.0 9.0 0.00 0.00 0.00 75 1011.4
20260507232659 52 117 9.0 9.0 0.00 0.00 0.00 73 1011.4
20260507232156 52 108 4.0 6.0 0.00 0.00 0.00 75 1011.4
20260507231652 50 68 6.0 8.0 0.00 0.00 0.00 76 1011.7
20260507231149 50 76 5.0 7.0 0.00 0.00 0.00 76 1011.9
20260507230646 51 14 5.0 10.0 0.00 0.00 0.00 73 1011.9
20260507230143 51 64 6.0 7.0 0.00 0.00 0.00 74 1012.2
20260507225643 51 15 6.0 12.0 0.00 0.00 0.00 74 1012.0
20260507225140 50 21 4.0 8.0 0.00 0.00 0.00 75 1012.6
20260507224635 49 50 0.0 9.0 0.00 0.00 0.00 76 1012.0
20260507224132 49 345 4.0 11.0 0.00 0.00 0.00 75 1012.2
20260507223628 50 30 9.0 14.0 0.00 0.00 0.00 72 1012.3
20260507223125 51 345 6.0 12.0 0.00 0.00 0.00 70 1012.3
20260507222622 52 340 3.0 15.0 0.00 0.00 0.00 68 1012.3
20260507222118 52 350 6.0 11.0 0.00 0.00 0.00 70 1012.4
20260507221614 50 7 6.0 11.0 0.00 0.00 0.00 71 1012.5
20260507221111 52 335 7.0 12.0 0.00 0.00 0.00 66 1011.9
20260507220609 54 6 5.0 10.0 0.00 0.00 0.00 64 1012.2
20260507220106 54 85 3.0 7.0 0.00 0.00 0.00 68 1011.7
20260507215602 54 133 7.0 15.0 0.00 0.00 0.00 67 1011.8
20260507215100 56 174 7.0 13.0 0.00 0.00 0.00 63 1011.5
20260507214557 56 165 11.0 19.0 0.00 0.00 0.00 62 1011.5
20260507214053 55 198 7.0 17.0 0.00 0.00 0.00 62 1011.5
20260507213549 56 209 6.0 17.0 0.00 0.00 0.00 59 1011.4
20260507213047 57 197 11.0 12.0 0.00 0.00 0.00 56 1011.5
20260507212542 57 159 9.0 16.0 0.00 0.00 0.00 54 1011.3
20260507212039 57 198 11.0 26.0 0.00 0.00 0.00 53 1011.2
20260507211536 58 188 8.0 17.0 0.00 0.00 0.00 54 1011.3
20260507211032 56 197 9.0 14.0 0.00 0.00 0.00 59 1011.2
20260507210530 55 191 3.0 16.0 0.00 0.00 0.00 66 1011.4
20260507210026 54 167 11.0 12.0 0.00 0.00 0.00 69 1011.6
20260507205523 53 161 5.0 13.0 0.00 0.00 0.00 73 1011.6
20260507205019 51 135 10.0 13.0 0.00 0.00 0.00 75 1011.4
20260507204516 51 129 5.0 14.0 0.00 0.00 0.00 75 1011.5
20260507204014 53 120 6.0 13.0 0.00 0.00 0.00 75 1011.6
20260507203511 52 144 8.0 12.0 0.00 0.00 0.00 73 1012.2
20260507203008 52 144 9.0 12.0 0.00 0.00 0.00 72 1012.4
20260507202504 49 146 4.0 6.0 0.00 0.00 0.00 79 1012.5
20260507202000 49 131 0.0 5.0 0.00 0.00 0.00 78 1012.4
20260507201455 48 66 1.0 7.0 0.02 0.00 0.00 80 1012.3
20260507200952 47 29 8.0 12.0 0.02 0.00 0.00 79 1012.2
20260507200448 47 79 5.0 13.0 0.00 0.00 0.00 77 1012.8
20260507195944 47 88 2.0 7.0 0.00 0.00 0.00 75 1012.9
20260507195442 47 95 2.0 5.0 0.00 0.00 0.00 72 1013.1
20260507194939 47 97 4.0 9.0 0.00 0.00 0.00 71 1013.0
20260507194435 47 69 3.0 13.0 0.00 0.00 0.00 72 1013.3
20260507193931 47 85 3.0 11.0 0.00 0.00 0.00 69 1013.3
20260507193429 47 88 7.0 12.0 0.00 0.00 0.00 70 1013.2
20260507192925 47 117 4.0 9.0 0.00 0.00 0.00 72 1013.1
20260507192421 47 88 4.0 11.0 0.00 0.00 0.00 72 1013.2
20260507191918 47 88 6.0 13.0 0.00 0.00 0.00 73 1013.5
20260507191414 47 101 4.0 14.0 0.00 0.00 0.00 75 1013.3
20260507190911 48 93 5.0 15.0 0.00 0.00 0.00 74 1013.4
20260507190409 49 155 5.0 16.0 0.00 0.00 0.00 65 1013.7
20260507185908 49 72 2.0 10.0 0.00 0.00 0.00 61 1013.0
20260507185359 50 38 2.0 9.0 0.00 0.00 0.00 61 1013.6
20260507184856 50 95 5.0 11.0 0.00 0.00 0.00 58 1013.2
20260507184354 51 93 4.0 13.0 0.00 0.00 0.00 57 1013.4
20260507183850 52 30 9.0 16.0 0.00 0.00 0.00 57 1013.6
20260507183348 51 112 3.0 9.0 0.00 0.00 0.00 58 1013.8
20260507182845 50 326 3.0 9.0 0.00 0.00 0.00 56 1013.8
20260507182341 50 0 5.0 12.0 0.00 0.00 0.00 55 1013.6
20260507181837 50 5 5.0 11.0 0.00 0.00 0.00 55 1014.0
20260507181333 50 43 4.0 8.0 0.00 0.00 0.00 53 1014.2
20260507180830 54 63 4.0 17.0 0.00 0.00 0.00 48 1014.4
20260507180327 55 187 4.0 18.0 0.00 0.00 0.00 46 1014.3
20260507175822 54 201 5.0 11.0 0.00 0.00 0.00 45 1014.2
20260507175320 54 127 7.0 17.0 0.00 0.00 0.00 47 1014.3
20260507174817 54 127 15.0 25.0 0.00 0.00 0.00 44 1014.2
20260507174315 55 180 5.0 11.0 0.00 0.00 0.00 43 1014.2
20260507173812 54 183 8.0 16.0 0.00 0.00 0.00 42 1014.4
20260507173309 54 155 6.0 12.0 0.00 0.00 0.00 43 1014.3
20260507172805 54 185 9.0 11.0 0.00 0.00 0.00 42 1014.4
20260507172306 54 187 7.0 14.0 0.00 0.00 0.00 43 1014.5
20260507171758 54 220 4.0 11.0 0.00 0.00 0.00 45 1014.5
20260507171255 55 166 7.0 19.0 0.00 0.00 0.00 43 1014.5
20260507170752 54 138 11.0 12.0 0.00 0.00 0.00 45 1014.8
20260507170248 54 155 4.0 7.0 0.00 0.00 0.00 46 1014.6
20260507165744 54 187 2.0 16.0 0.00 0.00 0.00 45 1014.7
20260507165241 54 201 9.0 15.0 0.00 0.00 0.00 42 1014.8
20260507164737 54 186 11.0 22.0 0.00 0.00 0.00 44 1015.0
20260507164234 56 142 8.0 13.0 0.00 0.00 0.00 42 1015.1
20260507163731 54 163 5.0 13.0 0.00 0.00 0.00 47 1015.0
20260507163229 54 168 6.0 16.0 0.00 0.00 0.00 47 1015.1
20260507162725 54 222 9.0 11.0 0.00 0.00 0.00 47 1015.2
20260507162221 52 134 13.0 16.0 0.00 0.00 0.00 46 1015.0
20260507161718 52 206 2.0 12.0 0.00 0.00 0.00 45 1015.4
20260507161214 52 171 8.0 14.0 0.00 0.00 0.00 44 1015.3
20260507160710 53 213 7.0 17.0 0.00 0.00 0.00 49 1015.4
20260507160207 53 148 6.0 10.0 0.00 0.00 0.00 47 1015.5
20260507155703 51 41 3.0 8.0 0.00 0.00 0.00 43 1015.7
20260507155159 52 218 10.0 11.0 0.00 0.00 0.00 45 1015.6
20260507154655 51 204 9.0 16.0 0.00 0.00 0.00 45 1015.8
20260507154153 51 195 4.0 10.0 0.00 0.00 0.00 46 1016.0
20260507153650 51 251 4.0 11.0 0.00 0.00 0.00 49 1016.0
20260507153146 51 228 3.0 8.0 0.00 0.00 0.00 45 1016.1
20260507152643 50 189 5.0 13.0 0.00 0.00 0.00 47 1016.4
20260507152138 50 292 1.0 6.0 0.00 0.00 0.00 47 1016.4
20260507151635 49 202 7.0 13.0 0.00 0.00 0.00 46 1016.3
20260507151132 51 165 5.0 7.0 0.00 0.00 0.00 54 1016.6
20260507150629 49 232 4.0 12.0 0.00 0.00 0.00 48 1016.9
20260507150125 48 200 4.0 11.0 0.00 0.00 0.00 50 1016.7
20260507145620 49 211 6.0 13.0 0.00 0.00 0.00 50 1016.9
20260507145118 49 272 2.0 9.0 0.00 0.00 0.00 52 1017.2
20260507144614 49 180 3.0 12.0 0.00 0.00 0.00 51 1017.1
20260507144113 48 234 9.0 16.0 0.00 0.00 0.00 50 1017.2
20260507143609 48 183 6.0 11.0 0.00 0.00 0.00 52 1017.0
20260507143106 48 138 5.0 11.0 0.00 0.00 0.00 53 1016.9
20260507142601 47 183 6.0 10.0 0.00 0.00 0.00 51 1017.0
20260507142059 46 198 7.0 13.0 0.00 0.00 0.00 55 1017.3
20260507141554 47 215 3.0 7.0 0.00 0.00 0.00 55 1017.4
20260507141051 46 154 5.0 8.0 0.00 0.00 0.00 54 1017.1
20260507140548 47 217 5.0 8.0 0.00 0.00 0.00 53 1017.4
20260507140046 46 266 3.0 7.0 0.00 0.00 0.00 54 1017.4
20260507135542 46 193 3.0 12.0 0.00 0.00 0.00 54 1017.4
20260507135040 46 187 4.0 8.0 0.00 0.00 0.00 56 1017.3
20260507134536 44 198 4.0 11.0 0.00 0.00 0.00 55 1017.5
20260507134032 45 182 9.0 9.0 0.00 0.00 0.00 55 1017.6
20260507133528 44 205 3.0 7.0 0.00 0.00 0.00 57 1017.7
20260507133027 43 184 4.0 9.0 0.00 0.00 0.00 59 1017.6
20260507132523 43 194 4.0 10.0 0.00 0.00 0.00 60 1017.8
20260507132019 44 178 4.0 9.0 0.00 0.00 0.00 61 1017.7
20260507131516 43 205 4.0 5.0 0.00 0.00 0.00 62 1017.6
20260507131013 43 179 7.0 8.0 0.00 0.00 0.00 61 1017.7
20260507130510 43 187 3.0 10.0 0.00 0.00 0.00 61 1017.6
20260507130009 43 193 6.0 11.0 0.00 0.00 0.00 61 1017.6
20260507125507 43 169 3.0 11.0 0.00 0.00 0.00 60 1017.6
20260507125004 43 196 4.0 13.0 0.00 0.00 0.00 60 1017.7
20260507124500 43 191 7.0 9.0 0.00 0.00 0.00 61 1017.7
20260507123958 43 214 4.0 9.0 0.00 0.00 0.00 63 1017.3
20260507123455 42 191 5.0 10.0 0.00 0.00 0.00 66 1017.0
20260507122951 42 165 5.0 8.0 0.00 0.00 0.00 67 1017.3
20260507122447 41 183 2.0 6.0 0.00 0.00 0.00 71 1017.4
20260507121944 40 181 7.0 9.0 0.00 0.00 0.00 70 1017.3
20260507121439 40 194 4.0 7.0 0.00 0.00 0.00 71 1017.5
20260507120936 39 186 4.0 8.0 0.00 0.00 0.00 72 1017.3
20260507120432 39 183 4.0 7.0 0.00 0.00 0.00 73 1017.2
20260507115928 39 185 4.0 6.0 0.00 0.00 0.00 73 1017.2
20260507115424 38 204 3.0 5.0 0.00 0.00 0.00 74 1017.4
20260507114920 38 180 3.0 7.0 0.00 0.00 0.00 75 1017.3